Regional Weather Roundup
Issued by NWS

Home | Current Version | Previous Version | Text Only | Print | Product List | Glossary Off
Versions: 1 2 3 4 5 6 7 8 9 10 11 12 13 14 15 16 17 18 19 20 21 22 23 24 25 26 27 28 29 30 31 32 33 34 35 36 37 38 39 40 41 42 43 44 45 46 47 48 49 50

000
ASUS43 KLSX 231810
RWRMO

WEATHER SUMMARY FOR MISSOURI
NATIONAL WEATHER SERVICE SPRINGFIELD MO
100 PM CDT WED MAY 23 2018

NOTE: "FAIR" INDICATES FEW OR NO CLOUDS BELOW 12,000 FEET WITH NO
       SIGNIFICANT WEATHER AND/OR OBSTRUCTIONS TO VISIBILITY.
       CURRENT SKY AND/OR WEATHER CONDITIONS ARE NOT AVAILABLE FOR
       CHILLICOTHE AND FARMINGTON.

MOZ001>031-035>038-043-044-053-054-231900-
...NORTHERN AND WESTERN MISSOURI...

CITY           SKY/WX    TMP DP  RH WIND       PRES   REMARKS
KANSAS CTY INT MOSUNNY   86  65  49 S8        30.10F
6HR MIN TEMP:  68; 6HR MAX TEMP:  87;

KANSAS C DTWN  MOSUNNY   88  65  46 SE10      30.08F HX  90
6HR MIN TEMP:  70; 6HR MAX TEMP:  88;

LEE`S SUMMIT   SUNNY     85  65  51 S8G20     30.11F
6HR MIN TEMP:  68; 6HR MAX TEMP:  86;

ST JOSEPH      MOSUNNY   89  64  43 SE13      30.07F HX  90
6HR MIN TEMP:  67; 6HR MAX TEMP:  89;

CHILLICOTHE      N/A     87  67  51 MISG      30.11F HX  90
6HR MIN TEMP:  66; 6HR MAX TEMP:  88;

KIRKSVILLE     PTSUNNY   83  68  60 VRB6      30.15F
6HR MIN TEMP:  66; 6HR MAX TEMP:  84;


$$
MOZ066>068-077>081-088>096-101>105-231900-
...SOUTHWEST MISSOURI...

CITY           SKY/WX    TMP DP  RH WIND       PRES   REMARKS
SPRINGFIELD    MOSUNNY   83  67  58 S7        30.11F
6HR MIN TEMP:  67; 6HR MAX TEMP:  84;

JOPLIN         MOSUNNY   84  67  56 E3        30.10F
6HR MIN TEMP:  67; 6HR MAX TEMP:  84;

BRANSON        PTSUNNY   82  66  57 E7        30.13F

$$
MOZ032>034-039>042-045>050-055>058-069>072-231900-
...CENTRAL MISSOURI...

CITY           SKY/WX    TMP DP  RH WIND       PRES   REMARKS
COLUMBIA       SUNNY     85  69  58 VRB6      30.13F
6HR MIN TEMP:  68; 6HR MAX TEMP:  85;

JEFFERSON CITY MOSUNNY   84  67  56 CALM      30.11F
6HR MIN TEMP:  66; 6HR MAX TEMP:  85;

ROLLA          MOSUNNY   82  67  60 E5        30.15F
6HR MIN TEMP:  67; 6HR MAX TEMP:  83;

SEDALIA        MOSUNNY   85  70  60 S7        30.13F
6HR MIN TEMP:  69; 6HR MAX TEMP:  86;

WHITEMAN AFB   MOSUNNY   83  68  59 SE5       30.07F
WARRENSBURG    SUNNY     84  66  54 SE8       30.10F
OSAGE BEACH    MOSUNNY   85  70  60 SE6       30.12F

$$
MOZ051-052-059>065-231900-
...EAST CENTRAL MISSOURI...

CITY           SKY/WX    TMP DP  RH WIND       PRES   REMARKS
ST LOUIS INTL  MOSUNNY   83  64  52 SE8       30.16F
6HR MIN TEMP:  68; 6HR MAX TEMP:  83;

SPIRIT OF STL  MOSUNNY   84  65  52 E7        30.14F
6HR MIN TEMP:  65; 6HR MAX TEMP:  85;

ST CHARLES     SUNNY     82  66  58 SE3       30.14F
6HR MIN TEMP:  68; 6HR MAX TEMP:  83;


$$
MOZ072>076-082>087-097>100-106>115-231900-
...SOUTH CENTRAL AND SOUTHEAST MISSOURI...

CITY           SKY/WX    TMP DP  RH WIND       PRES   REMARKS
CAPE GIRARDEAU FAIR      85  65  51 NE10      30.12F
6HR MIN TEMP:  71; 6HR MAX TEMP:  86;

FARMINGTON     CLOUDY    82  66  58 VRB6      30.16F
6HR MIN TEMP:  65; 6HR MAX TEMP:  82;

POPLAR BLUFF   FAIR      87  70  56 NE8       30.11F HX  92
6HR MIN TEMP:  71; 6HR MAX TEMP:  87;

WEST PLAINS    MOSUNNY   83  69  62 E7        30.14F
6HR MIN TEMP:  68; 6HR MAX TEMP:  84;


$$




USA.gov is the U.S. government's official web portal to all federal, state and local government web resources and services.